Dewpoint
-1 1 2 1 0 0 1 1 1 -1 -3 -3 -3 -4 -5 -6 -7 -7 -8 -9 -9 -9 -10 -9 -9 -9 -10 -6 -3 8 10 11 11 12 13 13 13 13 12 12 12 12 12 10
1 2 -0 -1 -1 0 0 -0 -1 -3 -5 -5 -5 -5 -7 -7 -7 -7 -7 -7 -8 -8 -3 -4 1 -2 -7 -5 3 7 10 9 10 10 10 13 12 13 13 12 12 11 12 12
0 -1 -3 -3 -3 -2 -2 -2 -2 -3 -4 -5 -4 -4 -5 -6 -6 -7 -7 -7 -6 -4 -1 1 3 4 9 10 10 8 8 8 9 10 10 11 12 12 11 12 11 12 12 11
-1 -3 -3 -3 -3 -4 -2 -4 -3 -3 -2 -0 -4 0 -4 -5 -5 -5 -5 -4 -3 -0 0 0 0 0 1 6 12 11 10 10 8 9 10 9 11 11 10 11 11 10 11 11
0 -1 -1 -1 -2 -3 -1 -3 -3 -3 -2 -1 -2 -1 -2 -4 -3 -3 -4 -6 -7 -5 -2 -0 -0 -1 -2 -2 -1 -1 1 9 11 10 10 9 8 9 10 10 10 10 10 10
-0 -2 -3 -3 -3 -3 -4 -4 -3 -2 -1 3 -1 0 0 1 1 -3 -6 -8 -10 -11 -13 -13 -11 -9 -8 -6 -5 -3 -1 0 7 11 11 10 9 8 8 9 9 9 9 10
1 -0 -2 -2 -1 -3 -3 -1 4 5 5 4 -0 2 1 -2 -5 -8 -9 -11 -11 -12 -13 -15 -14 -13 -12 -12 -10 -10 -10 -6 1 4 8 10 10 10 9 8 8 9 9 9
3 5 -0 -2 -2 -1 -1 1 6 7 6 5 2 4 1 -5 -8 -11 -11 -11 -12 -13 -14 -12 -11 -10 -10 -10 -11 -13 -11 -10 -9 -0 2 5 9 10 10 8 7 8 8 9
5 4 -1 -1 -2 -2 1 3 1 6 5 8 4 1 -2 -6 -8 -10 -12 -12 -13 -13 -9 -8 -10 -10 -10 -9 -10 -10 -9 -8 -9 -10 -3 2 2 4 2 7 8 7 8 8
3 5 0 -2 -3 -3 -2 -2 2 7 7 7 3 1 0 -4 -8 -11 -12 -12 -12 -4 -3 -4 -5 -8 -6 -5 -2 -2 -1 -2 -3 -1 -3 -0 2 3 -1 -1 6 7 8 8
2 4 3 0 0 1 -0 0 1 3 5 6 5 3 -5 -5 -10 -11 -12 -13 -4 -4 -4 -2 -3 -2 0 -0 -2 -2 -3 0 -1 -1 -1 -3 0 4 2 2 3 3 6 7
-2 -0 2 1 -3 -4 -4 -4 -4 4 5 4 4 1 -6 -10 -12 -14 -7 -2 -3 -4 -5 -5 -3 -0 -0 -2 -2 2 2 1 1 1 1 1 2 2 1 0 1 3 4 4
-2 -1 1 -1 -3 -4 -5 -6 -7 -5 -1 2 2 -1 -10 -12 -13 -6 -3 -3 -4 -5 -3 -2 -2 1 -2 -7 -0 0 1 -0 0 1 1 -0 1 3 2 1 -1 -0 4 5
-5 -3 -1 1 -1 -4 -5 -6 -8 -7 -2 -1 -3 -7 -11 -11 -1 -3 -4 -4 -2 -3 -2 -1 -0 1 -3 -1 0 1 1 2 1 0 -0 -0 0 2 3 2 0 1 3 5
-4 -1 -2 -4 -5 -6 -6 -6 -7 -8 -9 -7 -7 -10 -12 -0 -1 -3 -3 -2 -2 -2 -0 1 2 -0 -0 1 -1 1 2 2 3 3 2 1 3 2 1 2 3 3 3 4
-4 -1 -3 -3 -5 -6 -5 -6 -8 -9 -9 -9 -10 -8 -1 -3 -3 -2 -2 -2 -2 0 1 3 1 0 -1 -1 -0 1 -3 -3 3 4 3 3 3 2 1 2 3 3 3 3
1 0 -1 -1 -4 -5 -4 -5 -8 -10 -11 -7 -3 -0 -3 -3 -3 -2 -2 -2 0 0 2 3 0 -1 -1 -0 -1 -2 -3 -3 -1 0 2 2 1 1 1 1 1 2 2 2
-4 -4 -3 -3 -4 -2 -7 -11 -11 -8 -5 -2 -3 -4 -3 -2 -2 -2 -3 1 -0 -0 2 1 -2 -2 -1 -0 -1 -1 -2 -3 -2 -0 1 -0 -1 -1 -1 -1 -1 -0 -0 -0
-9 -7 -3 -4 -5 -7 -9 -6 -2 -2 -2 -4 -3 -3 -2 -2 -2 -5 -2 -0 0 1 1 -0 -1 -3 -3 -1 -1 -1 -2 -3 -2 0 1 -1 -2 -2 -2 -2 -2 -2 -2 -2
-11 -7 -5 -4 -3 -4 -9 -4 -5 -7 -2 -4 -4 -3 -1 -2 -1 -3 -1 0 1 -0 -2 -3 -4 -4 -3 -1 -1 -1 -2 -2 -2 -0 0 -1 -2 -3 -3 -3 -3 -3 -2 -3
-7 -4 -3 -3 -1 -1 -2 -6 -6 -2 -4 -4 -3 -1 -1 -1 -1 -1 0 -0 -2 -2 -2 -2 -1 -4 -4 -1 -1 -1 -1 -2 -2 -1 0 -2 -3 -3 -4 -4 -4 -3 -3 -3
-2 -2 -1 -3 -1 -2 -4 -5 -7 -6 -7 -4 -2 -1 -1 -1 -0 0 -1 -2 -2 -2 -1 -2 -1 -0 -3 -2 -1 -1 -1 -2 -2 -1 -0 -2 -3 -4 -4 -4 -4 -4 -4 -4
-7 -6 -4 -6 -5 -8 -8 -9 -8 -5 -3 -2 -2 -3 -2 -0 -0 -1 -1 -2 -1 -2 -2 -2 -0 1 0 -0 -0 0 -0 -2 -2 -1 -0 -2 -3 -4 -4 -4 -4 -4 -4 -4
-8 -10 -5 -7 -8 -7 -10 -6 -6 -4 -3 -3 -4 -3 -0 -1 -1 -1 -2 -2 -2 -2 -2 -1 -1 0 1 1 1 1 0 -1 -2 -1 -1 -1 -3 -4 -4 -4 -4 -4 -4 -5
-7 -7 -6 -7 -6 -7 -10 -8 -8 -5 -4 -3 -2 -1 -2 -1 -2 -2 -2 -2 -2 -2 -2 -2 -1 -0 1 1 2 1 1 1 -1 -1 -1 -1 -2 -4 -4 -4 -4 -4 -4 -4
-8 -3 -2 -5 -7 -4 -4 -5 -6 -6 -3 -1 -2 -3 -3 -3 -3 -3 -2 -3 -3 -3 -2 -3 -2 -2 -1 0 -0 1 1 0 0 -0 -0 -1 -2 -3 -4 -4 -4 -4 -4 -3
Wind_Speed
11 4 7 11 13 15 11 12 12 12 10 16 16 14 10 8 16 18 21 19 24 24 24 12 16 14 15 18 26 32 35 33 33 36 35 37 43 43 40 40 41 40 39 38
4 11 15 14 14 14 13 13 14 8 8 10 17 19 9 6 10 19 17 22 25 33 10 10 12 5 11 21 27 32 32 28 23 25 26 40 46 47 42 42 43 43 42 42
6 11 9 7 6 7 6 8 6 12 9 4 13 18 3 5 12 25 28 27 13 20 27 24 23 29 21 8 18 17 18 19 16 19 21 29 38 42 42 42 43 43 43 42
9 7 5 7 7 7 10 9 7 7 9 4 10 13 18 5 8 12 20 25 30 30 30 28 23 23 24 26 3 6 14 17 17 18 17 23 32 36 35 41 43 44 47 45
8 14 15 14 12 12 17 4 3 2 5 11 6 4 12 10 3 12 16 29 33 35 32 27 25 24 22 20 14 13 14 12 19 20 19 16 21 26 31 32 41 46 48 47
13 21 10 10 14 8 5 3 6 2 0 8 14 8 6 3 4 15 18 25 29 33 35 34 30 27 26 22 19 20 20 18 13 20 25 21 18 20 27 32 35 40 45 47
13 8 5 6 4 3 3 3 4 4 3 10 3 8 4 11 16 16 14 23 26 29 33 38 37 37 35 32 30 30 24 22 18 18 20 24 24 22 23 26 32 38 42 44
3 4 3 5 3 3 4 3 4 7 3 5 7 6 5 14 17 20 19 21 27 33 36 31 31 35 39 40 40 38 33 34 26 21 24 26 26 28 27 27 28 35 46 49
3 4 3 6 2 1 2 2 1 2 1 3 6 9 12 12 12 13 19 23 27 29 28 29 28 26 31 34 39 33 30 32 34 37 32 32 33 30 28 31 34 37 42 49
4 6 5 5 4 3 6 2 1 3 4 7 5 12 6 11 15 17 15 18 21 19 26 35 30 30 23 21 21 26 28 36 39 37 36 36 37 37 33 29 33 35 42 48
3 2 3 9 3 5 4 3 1 1 4 4 6 6 4 7 15 18 21 35 31 31 35 30 33 33 26 27 32 33 36 36 30 35 38 41 39 34 31 31 29 28 39 46
2 3 5 6 11 12 8 6 7 4 4 4 1 7 10 18 19 25 24 26 29 29 32 32 29 32 29 30 39 30 28 29 19 17 21 29 32 34 35 35 27 31 32 36
4 3 3 5 1 1 3 7 9 6 5 2 4 6 18 20 23 25 23 24 29 30 30 28 38 22 25 17 23 22 26 21 21 20 22 24 26 28 32 37 41 37 34 39
4 3 5 7 5 8 9 13 12 8 6 11 14 21 18 17 14 20 26 27 30 33 34 36 27 25 13 14 18 21 23 23 19 18 16 14 14 23 29 28 30 29 30 38
5 5 7 9 11 11 14 13 9 13 14 13 18 19 20 8 12 19 26 31 35 34 33 28 20 11 12 11 13 15 19 22 22 17 17 20 18 20 22 27 28 30 30 35
3 4 5 11 9 14 19 13 14 16 19 19 19 18 10 15 17 20 26 29 34 34 28 31 19 18 8 12 12 16 21 23 20 22 24 24 26 25 26 28 29 30 39 38
5 2 5 16 8 10 10 5 13 17 18 12 10 4 9 11 12 21 31 30 26 27 32 27 20 15 15 11 13 20 21 23 25 21 18 20 24 25 23 27 30 34 38 40
8 8 4 8 8 11 6 9 12 9 4 8 4 6 9 12 24 30 25 19 29 30 32 23 22 19 22 14 15 17 19 25 30 25 17 20 17 19 20 22 26 33 38 39
12 8 3 5 11 12 17 6 2 5 4 4 1 9 16 23 24 27 25 27 38 38 34 27 24 20 18 14 14 12 19 23 28 24 19 15 10 10 15 20 26 31 36 42
12 10 7 3 3 5 1 2 3 7 8 2 0 4 10 20 11 13 38 38 39 36 31 26 24 24 24 14 7 10 16 20 24 21 16 10 7 9 13 19 25 31 35 39
5 2 10 11 7 5 1 6 10 3 4 9 8 10 14 7 11 34 36 30 31 33 33 32 31 22 19 10 5 8 14 19 20 19 14 8 5 6 11 18 23 28 31 33
3 3 2 2 2 5 11 8 6 7 9 8 12 15 16 23 27 23 27 32 33 35 33 33 34 31 25 5 8 12 13 17 17 18 13 7 1 6 12 17 22 25 29 30
2 1 2 5 4 11 5 3 4 3 5 7 14 24 19 24 18 20 24 28 29 29 33 29 32 29 22 17 17 11 14 16 16 16 12 6 2 7 13 19 25 26 30 32
3 8 2 3 3 6 17 2 1 5 7 15 18 18 18 19 18 21 23 27 29 30 32 33 28 27 28 26 13 12 16 13 16 14 11 4 3 10 15 20 25 29 34 34
5 6 4 5 6 6 13 10 8 5 16 16 14 12 13 14 17 18 20 23 23 26 25 30 28 23 22 22 14 11 15 15 13 14 11 4 6 12 19 22 27 32 33 32
3 2 2 5 10 2 4 11 10 13 18 13 9 12 13 12 16 19 18 20 21 22 23 25 25 21 18 20 21 11 12 17 19 14 14 7 11 16 21 25 28 29 29 29
Wind_Direction
272 214 229 225 230 235 260 284 295 300 305 302 292 291 287 305 336 314 298 292 289 288 286 246 232 232 257 260 240 222 215 215 220 222 223 230 226 223 233 224 220 224 220 223
284 246 245 252 261 267 276 285 287 291 289 303 296 290 284 288 273 280 288 295 284 278 90 83 56 359 274 250 226 217 216 223 219 235 245 231 226 226 232 226 223 227 224 223
228 269 312 300 295 320 286 284 305 297 333 299 298 298 310 287 319 306 298 290 323 117 87 83 77 66 67 181 218 225 239 235 239 242 241 244 237 227 222 225 231 223 225 221
264 272 307 320 282 285 284 273 305 343 4 305 31 300 308 277 313 353 1 58 69 69 61 55 48 46 48 63 68 266 267 261 248 241 236 243 244 240 241 231 229 233 224 223
249 302 297 296 283 297 286 278 337 338 322 321 159 252 309 312 352 47 48 44 37 34 39 40 28 14 13 10 6 12 9 289 267 255 247 243 239 251 255 256 247 235 232 227
242 258 268 262 270 276 283 8 336 318 53 276 291 196 310 1 83 68 48 37 27 21 12 4 3 9 11 9 7 5 356 341 301 266 250 248 258 252 248 252 252 245 237 232
287 266 287 13 335 346 346 56 324 319 176 239 269 311 155 87 62 53 34 25 20 12 2 351 346 342 336 334 327 325 328 330 318 295 270 258 259 258 255 252 245 244 241 239
286 321 60 17 64 6 330 124 176 244 230 296 355 269 118 92 57 39 40 21 5 355 349 349 342 337 328 324 320 311 303 300 304 287 282 272 259 255 259 261 253 247 242 249
307 247 75 340 102 56 360 218 146 352 251 245 254 275 290 56 34 33 11 358 351 344 344 341 328 331 326 317 313 317 312 303 293 287 272 262 265 262 260 257 256 252 245 239
332 301 274 22 43 251 210 285 266 69 256 244 257 270 250 12 8 354 350 347 345 354 345 342 337 323 328 319 311 303 305 291 286 291 281 263 254 253 262 262 249 255 252 237
60 197 264 348 230 225 280 238 173 23 238 255 259 245 73 42 358 344 335 339 349 350 343 341 337 328 334 328 314 301 303 302 287 282 280 278 265 251 262 263 264 253 252 244
55 240 259 241 274 276 298 278 277 230 269 257 267 260 348 344 334 329 348 347 339 332 330 323 330 322 325 326 321 326 327 315 315 300 278 270 269 263 261 254 256 266 255 259
184 256 318 304 309 162 5 331 328 344 11 210 292 288 326 320 330 353 340 331 323 322 325 322 321 310 313 325 325 324 327 324 316 313 298 290 272 274 263 269 266 259 253 252
64 288 217 239 281 323 287 292 305 306 263 283 272 291 307 316 354 337 335 332 328 318 318 315 311 297 288 326 316 317 319 328 327 329 296 293 288 270 269 264 247 254 250 253
165 233 244 262 282 293 287 285 303 288 283 274 282 288 292 5 333 327 321 321 318 316 316 315 300 302 301 305 316 328 328 327 321 301 288 287 285 285 278 265 254 246 244 247
214 245 254 268 258 265 269 270 266 267 267 271 274 281 8 336 324 311 316 324 313 315 311 307 277 277 302 317 326 328 330 336 324 306 303 296 288 282 286 266 250 247 240 235
202 224 242 267 261 285 276 229 262 266 267 292 282 11 346 314 312 319 315 314 312 314 310 299 290 300 305 300 304 326 342 348 341 328 307 303 299 294 274 257 244 236 230 224
234 243 242 271 295 269 258 228 263 286 27 66 46 325 309 314 314 305 316 317 308 308 310 322 325 309 309 283 295 323 343 350 346 341 329 321 315 288 264 243 230 220 214 214
227 241 251 240 248 271 295 319 29 34 9 65 272 334 327 322 317 325 336 325 321 319 311 304 288 307 320 257 286 336 350 352 346 344 334 330 318 298 259 233 216 210 203 192
230 215 202 231 228 251 351 77 299 305 267 46 94 290 313 324 341 314 323 330 323 340 350 353 347 334 313 255 293 341 347 345 345 347 340 330 311 280 237 219 204 194 191 184
298 306 219 228 245 243 77 349 304 216 248 305 336 313 317 313 300 300 315 326 335 341 350 355 357 336 316 264 326 340 338 345 347 349 354 343 303 258 223 205 198 193 189 181
328 318 286 217 275 293 181 179 145 213 275 300 328 319 327 321 317 322 330 335 338 339 350 346 356 360 349 318 314 324 331 344 349 350 1 5 282 217 205 192 188 188 183 180
296 43 233 179 234 309 91 231 261 239 304 333 319 326 327 318 318 335 338 333 339 341 345 345 355 357 10 355 334 319 332 341 347 353 3 14 163 198 205 189 185 183 183 177
294 323 281 8 236 276 302 236 336 331 318 318 315 324 324 325 334 336 337 340 338 344 344 345 348 359 4 358 326 318 321 325 343 349 358 353 191 193 195 191 183 176 176 176
245 304 264 266 279 287 307 284 308 324 330 321 316 328 332 338 340 338 336 336 339 342 343 350 352 349 1 9 3 324 335 315 326 342 346 307 228 201 195 194 187 182 184 187
201 190 223 236 275 276 286 329 318 317 314 319 340 336 344 342 337 335 336 339 342 343 343 346 351 345 343 348 344 1 314 313 312 316 326 303 232 215 202 197 193 197 196 192
Height
1465 1471 1473 1465 1461 1457 1455 1453 1453 1446 1441 1440 1438 1434 1430 1427 1429 1425 1423 1423 1420 1420 1420 1416 1416 1415 1417 1419 1422 1427 1430 1430 1433 1434 1441 1445 1447 1452 1456 1458 1463 1468 1470 1476
1469 1468 1455 1452 1450 1450 1450 1452 1450 1442 1437 1438 1432 1428 1429 1426 1425 1420 1420 1416 1415 1414 1413 1413 1413 1411 1412 1415 1419 1421 1426 1428 1431 1439 1439 1441 1444 1445 1450 1453 1457 1460 1464 1468
1466 1452 1446 1447 1449 1449 1449 1452 1450 1448 1441 1437 1434 1420 1426 1420 1417 1416 1413 1410 1410 1412 1411 1412 1413 1415 1413 1414 1421 1423 1429 1432 1429 1434 1438 1441 1441 1442 1443 1446 1451 1454 1458 1462
1457 1444 1445 1448 1448 1446 1453 1442 1440 1443 1451 1461 1442 1454 1407 1422 1418 1418 1414 1416 1415 1418 1417 1415 1417 1418 1419 1421 1424 1426 1430 1431 1427 1427 1431 1434 1437 1440 1441 1442 1445 1449 1452 1455
1459 1452 1451 1451 1448 1444 1443 1438 1441 1442 1448 1448 1448 1460 1420 1421 1422 1428 1427 1426 1426 1424 1425 1425 1425 1424 1423 1426 1427 1427 1427 1427 1425 1423 1426 1428 1430 1434 1436 1440 1439 1440 1444 1448
1447 1445 1445 1441 1437 1438 1435 1437 1440 1443 1452 1460 1436 1451 1449 1426 1421 1427 1428 1429 1430 1429 1427 1427 1426 1425 1423 1425 1428 1428 1427 1426 1423 1421 1421 1421 1426 1430 1432 1432 1433 1434 1436 1439
1447 1443 1440 1438 1440 1434 1437 1447 1474 1474 1471 1455 1430 1435 1433 1433 1432 1434 1434 1432 1434 1433 1430 1427 1424 1422 1423 1422 1423 1423 1423 1424 1423 1421 1419 1420 1422 1423 1424 1426 1427 1428 1430 1432
1459 1458 1445 1446 1450 1453 1449 1453 1470 1477 1464 1453 1436 1439 1441 1436 1433 1435 1436 1436 1431 1428 1428 1426 1424 1420 1420 1420 1419 1418 1416 1416 1419 1419 1417 1417 1419 1419 1419 1420 1422 1422 1421 1424
1464 1453 1442 1443 1446 1450 1452 1456 1452 1463 1460 1469 1440 1428 1421 1436 1434 1435 1436 1434 1432 1430 1430 1427 1425 1422 1420 1418 1415 1411 1409 1409 1411 1410 1410 1409 1408 1410 1412 1414 1416 1415 1415 1415
1464 1466 1448 1448 1448 1449 1452 1450 1461 1470 1468 1457 1438 1431 1425 1433 1431 1430 1432 1433 1433 1430 1427 1423 1422 1420 1417 1416 1414 1411 1406 1402 1398 1397 1396 1397 1399 1403 1404 1404 1406 1408 1408 1406
1464 1470 1456 1453 1451 1453 1454 1455 1455 1462 1460 1455 1446 1442 1432 1435 1435 1433 1428 1423 1420 1418 1418 1419 1419 1416 1413 1409 1406 1401 1395 1393 1388 1387 1386 1384 1388 1393 1395 1397 1399 1402 1402 1401
1469 1470 1471 1458 1450 1446 1451 1454 1454 1463 1457 1456 1463 1456 1429 1430 1433 1432 1428 1426 1424 1423 1421 1419 1416 1411 1407 1401 1396 1393 1389 1386 1382 1380 1379 1378 1381 1383 1385 1385 1388 1394 1394 1394
1467 1471 1477 1457 1449 1448 1454 1454 1455 1456 1462 1469 1475 1457 1435 1433 1428 1431 1434 1431 1427 1422 1418 1415 1412 1407 1402 1397 1396 1392 1389 1384 1379 1377 1375 1373 1373 1376 1377 1378 1377 1379 1383 1386
1466 1468 1466 1466 1457 1461 1461 1457 1455 1458 1464 1466 1457 1443 1439 1438 1443 1438 1434 1432 1427 1421 1415 1407 1404 1401 1397 1394 1395 1391 1387 1382 1377 1372 1369 1368 1364 1370 1370 1369 1369 1370 1373 1377
1465 1470 1463 1460 1459 1460 1458 1456 1458 1458 1453 1456 1447 1443 1437 1446 1443 1437 1433 1429 1423 1416 1410 1403 1399 1395 1393 1392 1392 1388 1384 1379 1374 1370 1366 1364 1361 1361 1359 1359 1361 1364 1366 1369
1462 1467 1463 1464 1462 1458 1455 1454 1452 1448 1444 1441 1438 1436 1444 1443 1443 1440 1432 1423 1419 1412 1406 1401 1395 1392 1390 1389 1387 1383 1380 1374 1369 1364 1359 1357 1355 1352 1350 1351 1353 1355 1359 1361
1464 1465 1465 1460 1457 1456 1458 1455 1446 1441 1438 1437 1435 1446 1447 1442 1439 1433 1423 1421 1416 1409 1402 1397 1392 1389 1387 1384 1381 1379 1374 1369 1363 1358 1355 1352 1348 1345 1343 1343 1345 1348 1351 1355
1450 1453 1457 1457 1457 1469 1443 1438 1437 1438 1436 1445 1450 1449 1446 1439 1432 1426 1422 1417 1407 1401 1397 1395 1389 1384 1383 1382 1378 1375 1370 1364 1358 1354 1350 1347 1343 1341 1339 1339 1341 1345 1348 1352
1444 1448 1458 1461 1456 1447 1441 1439 1444 1444 1447 1448 1447 1443 1438 1433 1424 1414 1418 1410 1403 1399 1393 1389 1385 1380 1377 1374 1373 1371 1367 1362 1356 1350 1346 1343 1340 1339 1340 1340 1342 1345 1347 1351
1439 1442 1453 1459 1463 1459 1438 1443 1442 1442 1445 1443 1442 1440 1438 1432 1424 1417 1412 1407 1401 1398 1392 1387 1382 1377 1374 1372 1369 1367 1363 1360 1354 1348 1345 1341 1339 1339 1339 1341 1344 1347 1351 1354
1441 1441 1447 1446 1451 1445 1439 1440 1440 1449 1449 1439 1438 1437 1435 1431 1430 1421 1412 1407 1403 1399 1393 1386 1382 1376 1373 1370 1366 1364 1361 1358 1353 1347 1343 1341 1340 1340 1341 1344 1347 1351 1355 1359
1450 1450 1447 1443 1450 1455 1437 1438 1450 1439 1434 1434 1432 1432 1428 1425 1421 1417 1411 1404 1398 1393 1389 1385 1382 1376 1369 1370 1366 1362 1360 1357 1352 1348 1344 1342 1341 1342 1343 1346 1351 1355 1359 1363
1443 1445 1449 1449 1448 1435 1434 1433 1431 1431 1430 1430 1428 1425 1423 1420 1418 1416 1411 1406 1401 1396 1390 1386 1382 1377 1373 1371 1365 1363 1360 1357 1353 1349 1345 1343 1343 1343 1346 1348 1351 1357 1361 1365
1439 1438 1443 1441 1432 1431 1430 1429 1428 1428 1427 1426 1424 1421 1420 1418 1415 1412 1408 1403 1398 1394 1387 1383 1380 1376 1372 1369 1367 1363 1360 1358 1354 1351 1347 1345 1345 1347 1348 1351 1353 1356 1362 1366
1441 1437 1436 1437 1430 1427 1426 1426 1425 1424 1423 1422 1420 1420 1419 1416 1414 1411 1407 1404 1400 1394 1389 1383 1378 1376 1375 1370 1367 1363 1358 1356 1355 1351 1349 1347 1347 1349 1351 1353 1355 1358 1361 1365
1432 1437 1438 1438 1426 1426 1424 1424 1422 1420 1421 1418 1419 1417 1416 1415 1412 1410 1407 1404 1400 1395 1390 1384 1380 1376 1373 1371 1367 1363 1360 1357 1353 1352 1350 1348 1348 1349 1352 1354 1357 1362 1364 1368